Home > Weather > Tucumán > Past weeks

Flag for Argentina Weather for the Past 2 Weeks in Tucumán, Tucumán, Argentina

Now
59 °F

Clear.


Feels Like: 59 °F
Forecast: 51 / 66 °F
Wind: No wind

Location: Tucuman Aerodrome

Current Time: May 3, 2016 at 4:28:52 AM

Latest Report: May 3, 2016 at 3:00 AM


Visibility: 6 mi

Pressure: 30.27 "Hg

Humidity: 88%

Dew Point: 55 °F

Location of TucumánLocation

Historic Weather in Tucumán — Graph

°F

Tucumán Temperature Yesterday

Maximum temperature yesterday: 70 °F (at 3:00 PM)
Minimum temperature yesterday: 52 °F (at 2:00 AM)
Average temperature yesterday: 60 °F

High & Low Weather Summary for the Past Weeks

 TemperatureHumidityPressure
High82 °F (Apr 24, 4:00 PM)100% (Apr 18, 3:00 AM)30.45 "Hg (Apr 18, 3:00 AM)
Low37 °F (Apr 22, 12:00 PM)43% (Apr 28, 3:00 PM)29.59 "Hg (Apr 23, 5:00 PM)
Average59 °F79%30.05 "Hg
* Reported Apr 18 3:00 AM — May 3 3:00 AM, Tucumán, Weather by CustomWeather, © 2016

Note: Actual official high and low records may vary slightly from our data, if they occured in-between our weather recording intervals... More about our weather records

Advertising

Tucumán Weather History for the Previous 24 Hours

Scroll right to see more
 ConditionsComfort  
Time TempWeatherWind HumidityBarometerVisibility
3:00 AM
Tue, May 3
59 °FClear.No wind88%30.27 "Hg6 mi
2:00 AM61 °FOvercast.2 mph83%30.27 "Hg5 mi
1:00 AM61 °FOvercast.3 mph83%30.27 "Hg5 mi
12:00 AM61 °FOvercast.2 mph77%30.27 "HgN/A
11:00 PM
Mon, May 2
61 °FPassing clouds.No wind83%30.27 "HgN/A
10:00 PM63 °FPassing clouds.No wind73%30.24 "HgN/A
9:00 PM63 °FPassing clouds.No wind77%30.24 "HgN/A
8:00 PM64 °FPassing clouds.No wind68%30.18 "HgN/A
7:00 PM64 °FOvercast.5 mph73%30.18 "HgN/A
6:00 PM66 °FPassing clouds.7 mph60%30.12 "HgN/A
5:00 PM66 °FBroken clouds.7 mph60%30.12 "HgN/A
4:00 PM68 °FPartly sunny.7 mph56%30.12 "HgN/A
3:00 PM70 °FSunny.9 mph57%30.12 "Hg10 mi
2:00 PM68 °FSunny.7 mph56%30.12 "Hg10 mi
1:00 PM66 °FSunny.8 mph64%30.15 "Hg10 mi
12:00 PM64 °FPartly sunny.3 mph64%30.15 "HgN/A
11:00 AM61 °FPartly sunny.3 mph72%30.18 "HgN/A
10:00 AM59 °FOvercast.3 mph82%30.15 "HgN/A
9:00 AM57 °FSunny.7 mph77%30.12 "Hg10 mi
8:00 AM55 °FSunny.10 mph82%30.09 "Hg10 mi
7:00 AM55 °FOvercast.9 mph88%30.07 "Hg5 mi
6:00 AM55 °FOvercast.7 mph82%30.04 "HgN/A
5:00 AM54 °FOvercast.6 mph88%30.04 "HgN/A
Weather by CustomWeather, © 2016

See weather overviewHow to use our weather pages